Flag for China Weather past 2 weeks in Kashgar, Xinjiang, China

Now
61 °F

Sunny.


Feels Like: 61 °F
Forecast: 63 / 84 °F
Wind: 3 mph from North

Location: Kashi Airport

Current Time: May 28, 2015 at 8:55:04 AM

Latest Report: May 28, 2015 at 8:00 AM


Visibility: 10 mi

Pressure: 30.01 "Hg

Humidity: 34%

Dew point: 32 °F

Location of KashgarLocation

Historic Weather in Kashgar — Graph

°F

Kashgar temperature yesterday

Maximum temperature yesterday: 79 °F (at 4:00 PM)
Minimum temperature yesterday: 57 °F (at 7:00 AM)
Average temperature yesterday: 69 °F

Past Weeks' High & Low Weather Summary

 TemperatureHumidityPressure
High88 °F (May 16, 6:00 PM)73% (May 13, 11:00 AM)30.18 "Hg (May 13, 11:00 AM)
Low54 °F (May 25, 8:00 AM)4% (May 18, 5:00 PM)29.71 "Hg (May 17, 3:00 AM)
Average72 °F25%29.94 "Hg
* Reported May 13 7:00 AM — May 28 7:00 AM, Kashgar, Weather by CustomWeather, © 2015

Note: Actual official high and low records may vary slightly from our data, if they occured in-between our weather recording intervals... More about our weather records

Advertising

Kashgar weather history for previous 24 hours

 ConditionsComfort  
Time TempWeatherWind HumidityBarometerVisibility
7:00 AM
Thu, May 28
61 °FClear.8 mph36%29.98 "Hg10 mi
6:00 AM63 °FPassing clouds.6 mph32%30.01 "HgN/A
5:00 AM63 °FClear.8 mph34%29.98 "Hg10 mi
4:00 AM64 °FClear.8 mph28%30.01 "Hg10 mi
3:00 AM66 °FClear.1 mph30%30.01 "Hg10 mi
2:00 AM72 °FClear.8 mph19%30.01 "Hg10 mi
1:00 AM72 °FClear.10 mph23%30.01 "Hg10 mi
12:00 AM72 °FClear.17 mph23%30.01 "Hg10 mi
11:00 PM
Wed, May 27
72 °FPassing clouds.22 mph22%29.98 "HgN/A
10:00 PM75 °FPassing clouds.10 mph15%29.95 "HgN/A
9:00 PM73 °FScattered clouds.22 mph19%29.95 "HgN/A
8:00 PM77 °FScattered clouds.6 mph17%29.92 "HgN/A
7:00 PM79 °FScattered clouds.13 mph9%29.89 "HgN/A
6:00 PM79 °FScattered clouds.6 mph15%29.89 "HgN/A
5:00 PM79 °FPassing clouds.8 mph15%29.92 "HgN/A
4:00 PM79 °FPassing clouds.10 mph18%29.95 "HgN/A
3:00 PM77 °FPassing clouds.10 mph19%29.98 "HgN/A
2:00 PM75 °FPassing clouds.8 mph19%30.01 "HgN/A
1:00 PM75 °FPassing clouds.8 mph22%30.01 "HgN/A
12:00 PM73 °FPassing clouds.6 mph20%30.04 "HgN/A
11:00 AM73 °FSunny.1 mph17%30.04 "Hg10 mi
10:00 AM68 °FSunny.8 mph23%30.04 "Hg10 mi
9:00 AM63 °FSunny.8 mph30%30.04 "Hg10 mi
8:00 AM59 °FSunny.10 mph34%30.04 "Hg10 mi
Weather by CustomWeather, © 2015

See weather overviewHow to use our weather pages